This is the latest recevied weather packets stored in our database for station/object 9W3FAB-1. If no packets are shown the sender has not sent any weather packets the latest 10 day(s).
| Time | Temp. | Humidity | Pressure | Rain* | Wind** | Luminosity | Snow |
|---|---|---|---|---|---|---|---|
| 1777708007 | 28.33° C | 100% | 1005 hPa | - | - | - | - |
| 1777707107 | 27.78° C | 100% | 1005.7 hPa | - | - | - | - |
| 1777706206 | 28.33° C | 100% | 1005.6 hPa | - | - | - | - |
| 1777705305 | 28.89° C | 100% | 1005.7 hPa | - | - | - | - |
| 1777704404 | 28.89° C | 100% | 1005.2 hPa | - | - | - | - |
| 1777703503 | 29.44° C | 100% | 1005.5 hPa | - | - | - | - |
| 1777702602 | 30° C | 100% | 1005.5 hPa | - | - | - | - |
| 1777701701 | 30° C | 100% | 1005.9 hPa | - | - | - | - |
| 1777700801 | 30.56° C | 100% | 1006 hPa | - | - | - | - |
| 1777699900 | 31.11° C | 100% | 1006.4 hPa | - | - | - | - |
| 1777698999 | 30.56° C | 100% | 1006.9 hPa | - | - | - | - |
| 1777698098 | 30.56° C | 100% | 1007.4 hPa | - | - | - | - |
| 1777697197 | 31.11° C | 100% | 1007.9 hPa | - | - | - | - |
| 1777696296 | 30.56° C | 100% | 1007.7 hPa | - | - | - | - |
| 1777695395 | 30.56° C | 100% | 1008 hPa | - | - | - | - |
| 1777694494 | 30.56° C | 100% | 1008.3 hPa | - | - | - | - |
| 1777693593 | 29.44° C | 100% | 1008.7 hPa | - | - | - | - |
| 1777692691 | 29.44° C | 100% | 1008.8 hPa | - | - | - | - |
| 1777691790 | 29.44° C | 100% | 1009.1 hPa | - | - | - | - |
| 1777690889 | 28.89° C | 100% | 1009.2 hPa | - | - | - | - |
| 1777689988 | 28.89° C | 100% | 1009.3 hPa | - | - | - | - |
| 1777689088 | 28.33° C | 100% | 1009.3 hPa | - | - | - | - |
| 1777688187 | 28.33° C | 100% | 1009.3 hPa | - | - | - | - |
| 1777687286 | 28.33° C | 100% | 1009.3 hPa | - | - | - | - |
| 1777686385 | 27.78° C | 100% | 1009.1 hPa | - | - | - | - |
* Rain since midnight (hover to see other rain measurements)
** Current wind speed in m/s (hover to see current wind gust speed)